Flag for Norway Weather past 2 weeks in Ålesund, Norway

Now
48 °F

Broken clouds.


Feels Like: 44 °F
Forecast: 44 / 49 °F
Wind: 10 mph from Southwest

Location: Alesund / Vigra

Current Time: May 25, 2015 at 12:11:42 PM

Latest Report: May 25, 2015 at 11:50 AM


Visibility: N/A

Pressure: 29.77 "Hg

Humidity: 82%

Dew point: 43 °F

Location of ÅlesundLocation

Historic Weather in Ålesund — Graph

°F

Ålesund temperature yesterday

Maximum temperature yesterday: 50 °F (at 5:20 PM)
Minimum temperature yesterday: 41 °F (at 12:20 AM)
Average temperature yesterday: 45 °F

Past Weeks' High & Low Weather Summary

 TemperatureHumidityPressure
High59 °F (May 19, 12:20 PM)93% (May 12, 11:50 PM)30.07 "Hg (May 12, 11:50 PM)
Low37 °F (May 15, 5:20 AM)34% (May 19, 12:20 PM)29.39 "Hg (May 19, 10:20 AM)
Average47 °F76%29.77 "Hg
* Reported May 10 10:20 AM — May 25 10:50 AM, Ålesund, Weather by CustomWeather, © 2015

Note: Actual official high and low records may vary slightly from our data, if they occured in-between our weather recording intervals... More about our weather records

Advertising

Ålesund weather history for previous 24 hours

 ConditionsComfort  
Time TempWeatherWind HumidityBarometerVisibility
10:50 AM
Mon, May 25
46 °FBroken clouds.10 mph82%29.77 "HgN/A
10:20 AM46 °FPartly sunny.10 mph82%29.77 "HgN/A
9:50 AM46 °FBroken clouds.7 mph82%29.77 "HgN/A
9:20 AM46 °FBroken clouds.7 mph82%29.74 "HgN/A
8:50 AM46 °FDrizzle. Broken clouds.3 mph82%29.74 "HgN/A
8:20 AM45 °FDrizzle. Partly sunny.5 mph93%29.74 "HgN/A
7:20 AM45 °FDrizzle. Broken clouds.5 mph87%29.74 "HgN/A
6:20 AM45 °FLight rain. Partly sunny.5 mph87%29.71 "HgN/A
5:50 AM45 °FDrizzle. Partly sunny.8 mph87%29.71 "HgN/A
5:20 AM45 °FDrizzle. Overcast.8 mph87%29.71 "HgN/A
4:50 AM45 °FDrizzle. Overcast.8 mph87%29.71 "HgN/A
4:20 AM45 °FPartly cloudy.6 mph87%29.71 "HgN/A
3:50 AM45 °FDrizzle. Overcast.7 mph87%29.71 "HgN/A
3:20 AM45 °FDrizzle. Overcast.7 mph87%29.71 "HgN/A
2:50 AM46 °FDrizzle. Overcast.6 mph82%29.71 "HgN/A
2:20 AM45 °FLight rain. Overcast.2 mph87%29.71 "HgN/A
1:50 AM45 °FDrizzle. Mostly cloudy.3 mph87%29.71 "HgN/A
1:20 AM45 °FPartly cloudy.10 mph87%29.74 "HgN/A
12:50 AM45 °FDrizzle. Overcast.9 mph87%29.74 "HgN/A
12:20 AM46 °FMostly cloudy.6 mph82%29.74 "HgN/A
11:50 PM
Sun, May 24
45 °FCloudy.7 mph87%29.74 "HgN/A
11:20 PM46 °FBroken clouds.10 mph82%29.74 "HgN/A
10:50 PM46 °FBroken clouds.14 mph82%29.74 "HgN/A
9:50 PM46 °FPartly sunny.14 mph82%29.71 "HgN/A
9:20 PM46 °FPartly sunny.15 mph82%29.71 "HgN/A
8:50 PM46 °FBroken clouds.15 mph87%29.71 "HgN/A
8:20 PM46 °FScattered showers. Broken clouds.12 mph87%29.71 "HgN/A
7:50 PM45 °FLight rain. Broken clouds.16 mph87%29.71 "HgN/A
7:20 PM46 °FLight rain. Broken clouds.15 mph87%29.71 "HgN/A
6:50 PM46 °FDrizzle. Broken clouds.15 mph82%29.71 "HgN/A
6:20 PM46 °FDrizzle. Broken clouds.15 mph93%29.68 "Hg6 mi
5:50 PM46 °FLight rain. Broken clouds.20 mph93%29.68 "HgN/A
5:20 PM50 °FPartly sunny.8 mph76%29.68 "HgN/A
4:50 PM48 °FPartly sunny.8 mph87%29.68 "HgN/A
4:20 PM48 °FPartly sunny.6 mph87%29.68 "HgN/A
3:50 PM48 °FPartly sunny.8 mph87%29.68 "HgN/A
3:20 PM48 °FLight rain. Partly sunny.6 mph87%29.68 "HgN/A
2:50 PM46 °FLight rain. Partly sunny.10 mph93%29.68 "HgN/A
2:20 PM46 °FLight rain. Partly sunny.9 mph93%29.68 "HgN/A
1:50 PM48 °FLight rain. Partly sunny.7 mph87%29.71 "HgN/A
1:20 PM48 °FLight rain. Partly sunny.7 mph82%29.71 "HgN/A
12:50 PM48 °FLight rain. Partly sunny.5 mph82%29.71 "HgN/A
12:20 PM46 °FLight rain. Partly sunny.2 mph87%29.71 "HgN/A
Weather by CustomWeather, © 2015

See weather overviewHow to use our weather pages